�������l�o���
Date,Time,MP-1(��Sv/h),MP-2(��Sv/h),MP-3(��Sv/h),MP-4(��Sv/h),MP-5(��Sv/h),MP-6(��Sv/h),MP-7(��Sv/h),MP-8(��Sv/h),����,����(m/s),���J
2022/08/16,00:00,0.586,0.830,0.525,0.993,0.719,0.339,0.587,0.552,��,4.2,��
2022/08/16,00:10,0.586,0.827,0.527,0.992,0.719,0.340,0.587,0.552,��,3.7,��
2022/08/16,00:20,0.587,0.829,0.526,0.991,0.718,0.338,0.587,0.551,��,3.4,��
2022/08/16,00:30,0.587,0.828,0.527,0.989,0.719,0.340,0.588,0.550,��,3.5,��
2022/08/16,00:40,0.588,0.827,0.527,0.993,0.720,0.339,0.587,0.553,��,3.7,��
2022/08/16,00:50,0.588,0.829,0.527,0.990,0.720,0.341,0.588,0.552,��,3.6,��
2022/08/16,01:00,0.587,0.830,0.528,0.990,0.718,0.340,0.587,0.553,��,3.0,��
2022/08/16,01:10,0.588,0.829,0.527,0.992,0.719,0.338,0.588,0.551,��,2.8,��
2022/08/16,01:20,0.588,0.828,0.528,0.991,0.721,0.339,0.588,0.551,��쓌,2.8,��
2022/08/16,01:30,0.588,0.830,0.528,0.991,0.719,0.338,0.588,0.553,��,2.6,��
2022/08/16,01:40,0.587,0.828,0.528,0.992,0.719,0.340,0.589,0.553,��,3.8,��
2022/08/16,01:50,0.587,0.828,0.528,0.993,0.720,0.339,0.586,0.551,��쓌,4.7,��
2022/08/16,02:00,0.589,0.828,0.530,0.993,0.721,0.340,0.588,0.553,��쓌,5.3,��
2022/08/16,02:10,0.588,0.830,0.528,0.994,0.719,0.340,0.589,0.552,��,5.5,��
2022/08/16,02:20,0.589,0.830,0.528,0.993,0.721,0.341,0.587,0.555,��,5.6,��
2022/08/16,02:30,0.588,0.829,0.527,0.993,0.723,0.340,0.590,0.553,��,5.4,��
2022/08/16,02:40,0.587,0.828,0.526,0.994,0.720,0.339,0.587,0.553,��,5.4,��
2022/08/16,02:50,0.587,0.831,0.527,0.990,0.719,0.338,0.587,0.552,��,4.7,��
2022/08/16,03:00,0.587,0.831,0.528,0.992,0.721,0.340,0.587,0.552,��,4.3,��
2022/08/16,03:10,0.588,0.829,0.526,0.995,0.719,0.339,0.587,0.552,��,4.9,��
2022/08/16,03:20,0.587,0.830,0.528,0.994,0.721,0.339,0.587,0.553,��,5.3,��
2022/08/16,03:30,0.586,0.827,0.527,0.992,0.719,0.339,0.587,0.552,��,5.1,��
2022/08/16,03:40,0.588,0.830,0.528,0.995,0.719,0.339,0.587,0.552,��,6.3,��
2022/08/16,03:50,0.586,0.831,0.528,0.992,0.720,0.339,0.587,0.551,��,6.2,��
2022/08/16,04:00,0.589,0.830,0.527,0.993,0.722,0.339,0.588,0.552,��,5.5,��
2022/08/16,04:10,0.588,0.830,0.528,0.992,0.720,0.339,0.588,0.552,��,5.0,��
2022/08/16,04:20,0.588,0.829,0.529,0.994,0.718,0.338,0.588,0.552,��,6.2,��
2022/08/16,04:30,0.589,0.828,0.528,0.993,0.722,0.340,0.587,0.553,��,6.9,��
2022/08/16,04:40,0.588,0.828,0.528,0.993,0.719,0.339,0.588,0.553,��,5.2,��
2022/08/16,04:50,0.588,0.829,0.529,0.991,0.719,0.338,0.589,0.552,��,4.5,��
2022/08/16,05:00,0.589,0.829,0.528,0.993,0.721,0.339,0.588,0.552,��,3.9,��
2022/08/16,05:10,0.588,0.829,0.528,0.992,0.720,0.340,0.588,0.552,��쐼,2.6,��
2022/08/16,05:20,0.588,0.829,0.532,0.995,0.719,0.341,0.589,0.552,��,2.9,��
2022/08/16,05:30,0.590,0.831,0.529,0.995,0.719,0.340,0.589,0.553,��,2.5,��
2022/08/16,05:40,0.588,0.831,0.528,0.994,0.720,0.339,0.590,0.553,��,2.6,��
2022/08/16,05:50,0.588,0.831,0.528,0.994,0.721,0.339,0.590,0.554,��,2.0,��
2022/08/16,06:00,0.589,0.830,0.529,0.995,0.720,0.339,0.587,0.553,��쐼,2.3,��
2022/08/16,06:10,0.589,0.830,0.528,0.992,0.721,0.341,0.588,0.552,��쐼,2.0,��
2022/08/16,06:20,0.588,0.829,0.529,0.992,0.721,0.340,0.588,0.552,��쐼,2.5,��
2022/08/16,06:30,0.588,0.831,0.528,0.994,0.721,0.339,0.589,0.553,�쐼,2.0,��
2022/08/16,06:40,0.589,0.830,0.527,0.994,0.721,0.340,0.589,0.553,�쐼,2.6,��
2022/08/16,06:50,0.591,0.831,0.528,0.995,0.721,0.340,0.590,0.552,�쐼,1.7,��
2022/08/16,07:00,0.587,0.829,0.528,0.992,0.719,0.340,0.590,0.553,�k�k��,2.2,��
2022/08/16,07:10,0.588,0.830,0.528,0.993,0.719,0.341,0.589,0.553,�k�k��,1.7,��
2022/08/16,07:20,0.588,0.829,0.527,0.992,0.720,0.339,0.589,0.552,�k,1.4,��
2022/08/16,07:30,0.587,0.831,0.529,0.993,0.720,0.340,0.589,0.553,�k�k��,0.9,��
2022/08/16,07:40,0.588,0.830,0.527,0.995,0.719,0.340,0.589,0.551,���쓌,0.6,��
2022/08/16,07:50,0.590,0.829,0.526,0.993,0.719,0.339,0.588,0.554,��쓌,1.2,��
2022/08/16,08:00,0.589,0.831,0.530,0.994,0.720,0.340,0.587,0.551,��,0.9,��
2022/08/16,08:10,0.590,0.830,0.529,0.993,0.719,0.341,0.588,0.553,���쓌,1.2,��
2022/08/16,08:20,0.590,0.830,0.530,0.994,0.721,0.339,0.588,0.551,���k��,0.6,��
2022/08/16,08:30,0.591,0.831,0.529,0.995,0.723,0.340,0.589,0.552,-,CALM,��
2022/08/16,08:40,0.590,0.832,0.530,0.997,0.722,0.339,0.586,0.552,�쐼,0.9,��
2022/08/16,08:50,0.591,0.831,0.529,0.994,0.724,0.340,0.587,0.551,��,1.4,��
2022/08/16,09:00,0.594,0.832,0.530,0.995,0.722,0.340,0.587,0.549,��,2.0,��
2022/08/16,09:10,0.592,0.831,0.531,0.995,0.722,0.341,0.588,0.552,���쐼,0.9,��
2022/08/16,09:20,0.593,0.831,0.531,0.994,0.722,0.340,0.586,0.551,�쐼,0.9,��
2022/08/16,09:30,0.592,0.831,0.529,0.996,0.721,0.341,0.588,0.552,��쐼,1.5,��
2022/08/16,09:40,0.591,0.832,0.529,0.996,0.721,0.341,0.589,0.550,�쐼,2.3,��
2022/08/16,09:50,0.592,0.831,0.530,0.996,0.722,0.339,0.588,0.551,�쐼,2.0,��
2022/08/16,10:00,0.591,0.832,0.530,0.996,0.722,0.342,0.587,0.552,�쐼,1.4,��
2022/08/16,10:10,0.593,0.832,0.529,0.995,0.722,0.341,0.588,0.551,��쓌,1.2,��
2022/08/16,10:20,0.592,0.833,0.529,0.994,0.723,0.341,0.588,0.551,��쐼,1.1,��
2022/08/16,10:30,0.593,0.832,0.530,0.995,0.723,0.341,0.589,0.551,��,0.9,��
2022/08/16,10:40,0.594,0.833,0.529,0.994,0.722,0.341,0.590,0.551,��,2.2,��
2022/08/16,10:50,0.592,0.832,0.529,0.995,0.722,0.340,0.590,0.553,���쐼,3.9,��
2022/08/16,11:00,0.594,0.833,0.531,0.996,0.722,0.340,0.590,0.553,���쐼,4.3,��
2022/08/16,11:10,0.593,0.834,0.530,0.996,0.724,0.342,0.589,0.552,��,3.2,��
2022/08/16,11:20,0.594,0.834,0.530,0.998,0.724,0.341,0.589,0.553,���쐼,2.5,��
2022/08/16,11:30,0.593,0.833,0.530,0.994,0.723,0.340,0.591,0.553,���k��,2.0,��
2022/08/16,11:40,0.594,0.836,0.530,0.994,0.723,0.341,0.590,0.554,�쐼,3.7,-
2022/08/16,11:50,0.594,0.837,0.532,0.994,0.726,0.341,0.592,0.552,���쐼,3.9,-
2022/08/16,12:00,0.595,0.838,0.533,0.995,0.728,0.341,0.590,0.554,��,3.1,��
2022/08/16,12:10,0.594,0.839,0.532,0.996,0.730,0.342,0.588,0.554,���쐼,4.7,�L
2022/08/16,12:20,0.596,0.838,0.533,0.999,0.727,0.344,0.591,0.553,���쐼,5.4,�L
2022/08/16,12:30,0.595,0.840,0.534,0.995,0.729,0.344,0.588,0.552,��쐼,2.9,��
2022/08/16,12:40,0.593,0.839,0.535,0.997,0.731,0.344,0.589,0.555,�쐼,2.5,��
2022/08/16,12:50,0.594,0.838,0.534,0.999,0.730,0.343,0.591,0.555,��쐼,1.7,��
2022/08/16,13:00,0.594,0.838,0.535,1.001,0.730,0.343,0.587,0.551,��,2.3,��
2022/08/16,13:10,0.594,0.840,0.533,0.997,0.729,0.342,0.590,0.555,��쓌,3.8,��
2022/08/16,13:20,0.596,0.839,0.531,1.000,0.729,0.343,0.589,0.554,��쓌,4.8,��
2022/08/16,13:30,0.597,0.838,0.533,0.999,0.727,0.342,0.590,0.554,��,3.5,��
2022/08/16,13:40,0.595,0.839,0.534,1.000,0.728,0.343,0.588,0.555,��,4.1,��
2022/08/16,13:50,0.596,0.837,0.533,1.003,0.727,0.342,0.590,0.555,��,3.6,��
2022/08/16,14:00,0.596,0.838,0.533,1.001,0.729,0.342,0.590,0.554,��쐼,2.6,��
2022/08/16,14:10,0.596,0.839,0.534,1.001,0.727,0.341,0.590,0.555,��쐼,1.5,��
2022/08/16,14:20,0.596,0.837,0.534,1.001,0.728,0.342,0.589,0.555,��,2.2,��
2022/08/16,14:30,0.597,0.838,0.534,1.001,0.728,0.340,0.589,0.555,��,2.2,��
2022/08/16,14:40,0.598,0.838,0.536,1.000,0.729,0.342,0.590,0.553,��쐼,2.8,��
2022/08/16,14:50,0.598,0.838,0.534,1.000,0.726,0.341,0.588,0.555,�쐼,2.2,��
2022/08/16,15:00,0.598,0.839,0.533,0.999,0.729,0.340,0.589,0.554,�쐼,1.9,��
2022/08/16,15:10,0.598,0.841,0.535,1.001,0.728,0.342,0.589,0.555,�쐼,1.7,��
2022/08/16,15:20,0.596,0.838,0.534,1.000,0.728,0.341,0.589,0.553,�쐼,1.2,��
2022/08/16,15:30,0.598,0.840,0.534,1.000,0.729,0.339,0.588,0.553,��,2.5,��
2022/08/16,15:40,0.597,0.841,0.533,1.000,0.728,0.341,0.591,0.553,���k��,4.3,��
2022/08/16,15:50,0.597,0.838,0.533,0.999,0.728,0.342,0.590,0.556,���k��,5.1,�L
2022/08/16,16:00,0.597,0.837,0.533,1.002,0.727,0.341,0.590,0.555,��,8.2,�L
2022/08/16,16:10,0.593,0.832,0.530,0.999,0.723,0.341,0.590,0.555,���쐼,9.0,�L
2022/08/16,16:20,0.594,0.834,0.532,1.000,0.725,0.343,0.589,0.554,���쐼,7.7,�L
2022/08/16,16:30,0.593,0.832,0.531,1.001,0.723,0.341,0.588,0.554,��,7.0,��
2022/08/16,16:40,0.594,0.832,0.530,1.001,0.724,0.342,0.590,0.555,��,6.7,��
2022/08/16,16:50,0.591,0.830,0.531,0.999,0.722,0.342,0.588,0.556,��,8.7,��
2022/08/16,17:00,0.594,0.831,0.532,1.001,0.723,0.342,0.590,0.555,��,8.3,��
2022/08/16,17:10,0.594,0.831,0.530,1.003,0.723,0.343,0.588,0.553,��,7.1,��
2022/08/16,17:20,0.593,0.831,0.530,1.000,0.721,0.342,0.587,0.555,��,4.4,��
2022/08/16,17:30,0.593,0.831,0.530,1.000,0.721,0.342,0.586,0.556,��,3.1,��
2022/08/16,17:40,0.591,0.832,0.531,1.001,0.721,0.342,0.587,0.554,��,5.2,��
2022/08/16,17:50,0.592,0.831,0.529,1.002,0.721,0.340,0.588,0.555,��,7.6,��
2022/08/16,18:00,0.592,0.830,0.530,1.002,0.722,0.340,0.589,0.555,��,10.4,��
2022/08/16,18:10,0.591,0.830,0.529,1.004,0.721,0.340,0.589,0.553,��,8.4,��
2022/08/16,18:20,0.591,0.832,0.529,1.002,0.722,0.340,0.588,0.554,��,7.8,��
2022/08/16,18:30,0.592,0.831,0.528,1.001,0.723,0.341,0.589,0.553,��,10.2,��
2022/08/16,18:40,0.592,0.832,0.529,1.001,0.721,0.339,0.590,0.555,��,10.4,��
2022/08/16,18:50,0.593,0.832,0.529,1.002,0.722,0.341,0.588,0.554,��,9.4,��
2022/08/16,19:00,0.592,0.830,0.529,1.003,0.722,0.342,0.587,0.554,��,8.9,��
2022/08/16,19:10,0.593,0.830,0.529,1.003,0.724,0.339,0.587,0.555,��,10.3,��
2022/08/16,19:20,0.593,0.833,0.530,1.003,0.724,0.339,0.589,0.553,���쐼,8.3,��
2022/08/16,19:30,0.591,0.833,0.531,1.004,0.724,0.342,0.587,0.555,��,6.6,��
2022/08/16,19:40,0.591,0.831,0.531,1.002,0.725,0.341,0.589,0.556,�쐼,3.6,��
2022/08/16,19:50,0.592,0.834,0.533,1.003,0.726,0.342,0.589,0.555,���쐼,3.5,��
2022/08/16,20:00,0.592,0.833,0.532,1.001,0.724,0.340,0.589,0.556,��쐼,4.2,��
2022/08/16,20:10,0.593,0.833,0.531,1.007,0.725,0.341,0.590,0.556,��쐼,4.6,��
2022/08/16,20:20,0.593,0.835,0.531,1.004,0.725,0.342,0.590,0.555,�쐼,5.7,��
2022/08/16,20:30,0.593,0.833,0.530,1.005,0.726,0.343,0.589,0.556,���쐼,6.9,��
2022/08/16,20:40,0.593,0.832,0.533,1.002,0.723,0.341,0.587,0.557,���쐼,4.9,��
2022/08/16,20:50,0.594,0.835,0.532,1.005,0.725,0.342,0.590,0.558,��,5.8,��
2022/08/16,21:00,0.591,0.835,0.532,1.005,0.725,0.341,0.590,0.557,��,8.0,��
2022/08/16,21:10,0.593,0.834,0.532,1.005,0.726,0.342,0.588,0.555,��,7.6,��
2022/08/16,21:20,0.593,0.832,0.532,1.004,0.727,0.340,0.591,0.556,��,8.9,��
2022/08/16,21:30,0.594,0.837,0.532,1.004,0.726,0.342,0.588,0.557,��,7.3,��
2022/08/16,21:40,0.594,0.835,0.531,1.004,0.726,0.341,0.590,0.556,��,7.1,��
2022/08/16,21:50,0.594,0.836,0.532,1.006,0.726,0.342,0.591,0.558,��,6.8,��
2022/08/16,22:00,0.593,0.833,0.532,1.005,0.725,0.341,0.590,0.557,��,7.5,��
2022/08/16,22:10,0.592,0.834,0.532,1.005,0.725,0.342,0.590,0.558,��,7.8,��
2022/08/16,22:20,0.592,0.834,0.532,1.007,0.725,0.342,0.590,0.557,��,8.4,��
2022/08/16,22:30,0.593,0.835,0.531,1.006,0.725,0.343,0.591,0.556,��,7.1,��
2022/08/16,22:40,0.592,0.836,0.530,1.006,0.726,0.342,0.589,0.557,��,6.7,��
2022/08/16,22:50,0.594,0.834,0.532,1.005,0.725,0.343,0.591,0.557,��,4.6,��
2022/08/16,23:00,0.592,0.834,0.532,1.008,0.726,0.342,0.591,0.556,��,4.7,��
2022/08/16,23:10,0.594,0.834,0.533,1.006,0.726,0.342,0.591,0.556,���k��,5.7,��
2022/08/16,23:20,0.594,0.835,0.532,1.007,0.726,0.342,0.590,0.557,��,8.0,��
2022/08/16,23:30,0.593,0.835,0.533,1.007,0.725,0.342,0.589,0.556,��,9.1,��
2022/08/16,23:40,0.593,0.836,0.530,1.004,0.727,0.340,0.590,0.556,��,9.9,��
2022/08/16,23:50,0.596,0.835,0.533,1.006,0.725,0.341,0.592,0.556,��,8.8,��
